Date String (YYYY-MM-DD hh:mm:ss) UTC,Instrument flags,Ambient pressure (hPa),Sample flow (lpm),Bypass flow (lpm),Sample temperature (°C),Ambient temperature (°C),ASC tube jacket temperature (°C),LED temperature (°C),Box temperature (°C),Sample RH (%),Span deviation,Mass concentration (μg/m³),Mass concentration (μg/m³),Mass concentration (μg/m³)
DateTimeUTC,F1_M11,P_M11,Q1_M11,Q2_M11,T1_M11,T2_M11,T3_M11,T4_M11,T5_M11,U1_M11,ZSPAN_M11,X2_M11,X0_M11,X1_M11
2023-05-19 14:00:00,,0837.8,5.00,0.00,27.7,26.2,00.0,36.1,29.4,27.0,0003.4,0086.98,0110.71,0083.94
2023-05-19 14:01:00,,0837.8,4.98,0.00,27.7,26.2,00.0,36.1,29.4,26.9,0003.4,0087.44,0111.37,0084.34
2023-05-19 14:02:00,,0837.8,4.99,0.00,27.7,26.2,00.0,36.1,29.4,27.0,0003.3,0087.88,0112.05,0084.75
2023-05-19 14:03:00,,0837.8,5.01,0.00,27.7,26.1,00.0,36.1,29.4,27.0,0003.4,0088.35,0112.67,0085.18
2023-05-19 14:04:00,,0837.8,5.00,0.00,27.7,26.1,00.0,36.1,29.4,26.9,0003.3,0089.01,0113.20,0085.86
2023-05-19 14:05:00,,0837.9,5.01,0.00,27.7,26.1,00.0,36.1,29.3,26.9,0003.4,0089.53,0113.69,0086.43
2023-05-19 14:06:00,,0838.0,5.00,0.00,27.7,26.1,00.0,36.1,29.3,27.1,0003.4,0089.79,0113.88,0086.70
2023-05-19 14:07:00,,0838.0,5.00,0.00,27.7,26.1,00.0,36.1,29.3,27.0,0003.4,0090.21,0114.49,0087.17
2023-05-19 14:08:00,,0838.0,5.00,0.00,27.7,26.1,00.0,36.1,29.3,27.0,0003.4,0090.58,0115.27,0087.54
2023-05-19 14:09:00,,0838.0,5.00,0.00,27.7,26.1,00.0,36.1,29.3,26.9,0003.4,0090.92,0115.63,0087.85
2023-05-19 14:10:00,,0838.0,4.99,0.00,27.7,26.1,00.0,36.0,29.3,26.9,0003.4,0091.12,0115.84,0088.04
2023-05-19 14:11:00,,0838.0,4.99,0.00,27.7,26.1,00.0,36.0,29.3,26.9,0003.3,0091.10,0115.69,0088.04
2023-05-19 14:12:00,,0838.0,5.01,0.00,27.7,26.1,00.0,36.0,29.3,26.8,0003.3,0091.13,0115.56,0088.12
2023-05-19 14:13:00,,0838.0,5.01,0.00,27.7,26.1,00.0,36.0,29.3,27.0,0003.3,0091.22,0115.66,0088.19
2023-05-19 14:14:00,,0838.0,5.00,0.00,27.7,26.1,00.0,36.0,29.3,27.1,0003.4,0091.16,0115.51,0088.18
2023-05-19 14:15:00,,0838.1,5.00,0.00,27.7,26.1,00.0,36.0,29.3,27.2,0003.4,0091.03,0116.20,0088.04
2023-05-19 14:16:00,,0838.2,5.00,0.00,27.7,26.1,00.0,36.0,29.3,27.2,0003.4,0090.76,0116.18,0087.69
2023-05-19 14:17:00,,0838.2,5.00,0.00,27.7,26.1,00.0,36.0,29.3,27.3,0003.4,0090.45,0115.74,0087.37
2023-05-19 14:18:00,,0838.2,5.00,0.00,27.7,26.1,00.0,36.0,29.3,27.4,0003.4,0090.16,0115.26,0087.07
2023-05-19 14:19:00,,0838.2,5.00,0.00,27.7,26.1,00.0,36.0,29.3,27.4,0003.4,0089.66,0113.99,0086.63
2023-05-19 14:20:00,,0838.2,5.00,0.00,27.7,26.1,00.0,36.0,29.3,27.5,0003.4,0089.22,0113.41,0086.22
2023-05-19 14:21:00,,0838.2,5.00,0.00,27.7,26.0,00.0,36.0,29.3,27.5,0003.4,0088.85,0112.97,0085.82
2023-05-19 14:22:00,,0838.2,5.00,0.00,27.7,26.0,00.0,36.0,29.3,27.5,0003.4,0088.56,0112.76,0085.44
2023-05-19 14:23:00,,0838.2,5.00,0.00,27.7,26.0,00.0,36.0,29.3,27.5,0003.4,0088.17,0112.34,0084.99
2023-05-19 14:24:00,,0838.1,5.00,0.00,27.7,26.0,00.0,36.0,29.3,27.5,0003.5,0087.57,0111.39,0084.48
2023-05-19 14:25:00,,0838.2,5.00,0.00,27.7,26.0,00.0,36.0,29.3,27.5,0003.4,0087.13,0110.67,0084.09
2023-05-19 14:26:00,,0838.2,5.00,0.00,27.7,26.0,00.0,36.0,29.3,27.5,0003.4,0086.60,0109.46,0083.58
2023-05-19 14:27:00,,0838.2,5.00,0.00,27.7,26.0,00.0,36.0,29.3,27.5,0003.4,0086.06,0108.38,0083.12
2023-05-19 14:28:00,,0838.1,5.00,0.00,27.7,26.0,00.0,36.0,29.3,27.7,0003.4,0085.64,0107.94,0082.74
2023-05-19 14:29:00,,0838.2,5.00,0.00,27.7,26.0,00.0,36.0,29.3,27.9,0003.4,0085.23,0107.42,0082.32
2023-05-19 14:30:00,,0838.2,5.00,0.00,27.7,26.0,00.0,36.0,29.3,27.7,0003.4,0084.96,0107.25,0082.00
2023-05-19 14:31:00,,0838.2,5.01,0.00,27.7,26.0,00.0,36.0,29.3,27.6,0003.5,0084.80,0107.06,0081.79
2023-05-19 14:32:00,,0838.2,5.00,0.00,27.6,26.0,00.0,36.0,29.3,27.7,0003.5,0084.51,0106.57,0081.57
2023-05-19 14:33:00,,0838.3,5.00,0.00,27.7,26.0,00.0,36.0,29.3,27.9,0003.5,0084.20,0106.03,0081.32
2023-05-19 14:34:00,,0838.3,5.00,0.00,27.7,26.0,00.0,36.0,29.3,27.8,0003.5,0083.93,0105.57,0081.09
2023-05-19 14:35:00,,0838.3,4.99,0.00,27.7,26.0,00.0,36.0,29.3,27.6,0003.5,0083.84,0105.50,0080.96
2023-05-19 14:36:00,,0838.3,5.00,0.00,27.7,26.0,00.0,36.0,29.3,27.4,0003.6,0083.74,0105.43,0080.79
2023-05-19 14:37:00,,0838.3,4.99,0.00,27.7,26.1,00.0,36.0,29.3,27.7,0003.6,0083.57,0105.09,0080.62
2023-05-19 14:38:00,,0838.3,5.00,0.00,27.7,26.1,00.0,36.0,29.3,27.8,0003.7,0083.33,0104.63,0080.41
2023-05-19 14:39:00,,0838.3,4.99,0.00,27.7,26.1,00.0,36.0,29.3,27.8,0003.7,0083.26,0104.33,0080.31
2023-05-19 14:40:00,,0838.4,5.00,0.00,27.7,26.1,00.0,36.0,29.3,27.8,0003.7,0083.23,0104.30,0080.29
2023-05-19 14:41:00,,0838.4,5.01,0.00,27.7,26.1,00.0,36.0,29.3,27.6,0003.8,0083.26,0104.38,0080.28
2023-05-19 14:42:00,,0838.5,5.00,0.00,27.7,26.1,00.0,36.0,29.3,27.5,0003.8,0083.22,0104.85,0080.24
2023-05-19 14:43:00,,0838.4,5.00,0.00,27.7,26.1,00.0,36.0,29.3,27.6,0003.7,0083.40,0105.20,0080.37
2023-05-19 14:44:00,,0838.4,5.00,0.00,27.7,26.1,00.0,36.0,29.3,27.5,0003.7,0083.70,0106.34,0080.60
2023-05-19 14:45:00,,0838.4,5.00,0.00,27.7,26.1,00.0,36.0,29.3,27.4,0003.6,0083.91,0106.74,0080.83
2023-05-19 14:46:00,,0838.4,5.00,0.00,27.7,26.1,00.0,36.0,29.3,27.4,0003.6,0084.10,0107.17,0080.99
2023-05-19 14:47:00,,0838.5,5.00,0.00,27.7,26.1,00.0,36.0,29.3,27.6,0003.5,0084.17,0107.32,0081.07
2023-05-19 14:48:00,,0838.5,4.99,0.00,27.7,26.1,00.0,36.0,29.3,27.6,0003.4,0084.38,0107.61,0081.32
2023-05-19 14:49:00,,0838.6,5.00,0.00,27.7,26.1,00.0,36.0,29.3,27.6,0003.3,0084.69,0108.10,0081.64
2023-05-19 14:50:00,,0838.6,5.00,0.00,27.7,26.2,00.0,36.0,29.3,27.5,0003.2,0084.87,0108.29,0081.85
2023-05-19 14:51:00,,0838.6,5.00,0.00,27.7,26.2,00.0,36.0,29.3,27.5,0003.2,0085.01,0108.34,0082.00
2023-05-19 14:52:00,,0838.6,5.00,0.00,27.7,26.2,00.0,36.0,29.3,27.6,0003.1,0084.98,0108.73,0082.08
2023-05-19 14:53:00,,0838.6,5.00,0.00,27.7,26.2,00.0,36.0,29.3,27.6,0003.1,0084.99,0108.38,0082.15
2023-05-19 14:54:00,,0838.6,4.99,0.00,27.7,26.2,00.0,36.0,29.4,27.5,0003.1,0084.96,0109.05,0082.12
2023-05-19 14:55:00,,0838.7,4.99,0.00,27.7,26.2,00.0,36.0,29.4,27.7,0003.1,0084.88,0109.44,0082.06
2023-05-19 14:56:00,,0838.7,5.00,0.00,27.7,26.1,00.0,36.0,29.4,27.7,0003.1,0084.81,0109.08,0082.02
2023-05-19 14:57:00,,0838.7,4.99,0.00,27.7,26.1,00.0,36.0,29.4,27.6,0003.2,0084.69,0108.89,0081.92
2023-05-19 14:58:00,,0838.7,5.00,0.00,27.7,26.1,00.0,36.0,29.4,27.6,0003.2,0084.59,0108.66,0081.83
2023-05-19 14:59:00,,0838.7,5.00,0.00,27.7,26.1,00.0,36.0,29.4,27.6,0003.3,0084.47,0108.52,0081.70
